Location: Banska Bystrica
(0.0000°N, 19.1500°E)
Time: 02:35:30
(UTC+02:00)

USA 229 DEB - Pass Details

Date: 19 February 2019
Orbit: 996 x 1216 km, 63.4° (Epoch: 08 October)

Event Time Altitude Azimuth Distance (km) Brightness Sun altitude
Rises 19:08:30 0° 329° (NNW) 4,087 7.0 -17.5°
Reaches altitude 10° 19:11:16 10° 325° (NW) 3,139 6.4 -18.1°
Maximum altitude 19:18:42 60° 248° (WSW) 1,374 4.5 -20.0°
Drops below altitude 10° 19:26:11 10° 169° (S) 3,143 6.2 -21.8°
Sets 19:28:58 0° 165° (SSE) 4,092 6.7 -22.5°
